Content
SEND FEEDBACK

Daily
Averages
Monthly
Summary
United States of America

CENTERPORT, NEW YORK


Home > North America > United States > New York
Elevation: 30 feet     Latitude: 40 53N     Longitude: 073 22W

WEATHER
 
SELECT A DAY
Number of Records: 193,492;   Date Range: 1/1/95 - 8/28/14
 
SHARE

PRINT THIS DATA

[ ← Previous Day ]
WEATHER ALMANAC - MARCH 21, 2014
[ Next Day → ]
[ °C ]   °F
Weather ElementAverageHighLow
Temperature42.4 °F50 °F (3:53 pm)34 °F (11:53 pm)
Dewpoint19.2 °F21.9 °F (1:53 am)17.1 °F (2:53 pm)
Humidity40.5 %59 % (11:53 pm)28 % (2:53 pm)
Barometer29.97 in30.07 in (9:53 pm)29.91 in (1:53 am)
Wind Speed10.9 mph18.4 mph (1:53 pm)
Wind Gust29.9 mph (9:53 am)
Weather ElementAverage
Visibility10 mi
Wind DirectionWNW (277.4 °)

Weather ElementTotal
Precipitation---
Heating Degree Days23 (Base 65)
Averaged from 23 records on March 21, 2014
WEATHER CONDITIONS BREAKOUT
WIND DIRECTION BREAKOUT
WEATHER BY HOUR - MARCH 21, 2014
[ °C ]   °F
Local TimeTemperatureDewpointHumidityBarometerVisibilityWind DirectionWind SpeedGust SpeedPrecipitationEventsConditions
1:53 AM39.0 °F21.9 °F50 %29.91 in10.0 miWest (280°)9.2 mphClear
2:53 AM37.9 °F19.9 °F48 %29.91 in10.0 miWNW (290°)15.0 mph21.9 mphClear
3:53 AM39.0 °F19.0 °F45 %29.91 in10.0 miWNW (300°)15.0 mph25.3 mphPartly Cloudy
4:53 AM37.9 °F19.9 °F48 %29.92 in10.0 miWNW (300°)8.1 mph23.0 mphClear
5:53 AM37.0 °F19.9 °F50 %29.93 in10.0 miNW (310°)8.1 mph17.3 mphPartly Cloudy
6:53 AM37.0 °F19.9 °F50 %29.95 in10.0 miWNW (290°)10.4 mphMostly Cloudy
7:53 AM37.9 °F19.9 °F48 %29.96 in10.0 miWNW (300°)10.4 mph17.3 mphClear
8:53 AM39.9 °F19.0 °F43 %29.98 in10.0 miWNW (300°)12.7 mph25.3 mphClear
9:53 AM41.0 °F19.0 °F41 %29.97 in10.0 miNW (310°)15.0 mph29.9 mphClear
10:53 AM42.1 °F19.9 °F41 %29.97 in10.0 miWNW (300°)17.3 mph26.5 mphClear
11:53 AM45.0 °F19.9 °F37 %29.97 in10.0 miNW (310°)15.0 mph23.0 mphClear
12:53 PM45.0 °F19.0 °F36 %29.96 in10.0 miWNW (300°)12.7 mph23.0 mphClear
1:53 PM48.0 °F19.0 °F32 %29.96 in10.0 miWNW (290°)18.4 mph26.5 mphClear
2:53 PM48.9 °F17.1 °F28 %29.95 in10.0 miWNW (300°)12.7 mph24.2 mphClear
3:53 PM50.0 °F18.0 °F28 %29.95 in10.0 miNW (310°)16.1 mph23.0 mphClear
4:53 PM48.9 °F18.0 °F29 %29.96 in10.0 miWNW (290°)17.3 mph26.5 mphClear
5:53 PM50.0 °F18.0 °F28 %29.98 in10.0 miWNW (300°)11.5 mph18.4 mphClear
6:53 PM48.0 °F17.1 °F29 %30.00 in10.0 miNW (320°)10.4 mph19.6 mphClear
7:53 PM46.0 °F18.0 °F33 %30.02 in10.0 miNNW (340°)4.6 mphClear
8:53 PM43.0 °F19.0 °F38 %30.05 in10.0 miWNW (300°)3.5 mphClear
9:53 PM43.0 °F19.0 °F38 %30.07 in10.0 miNW (320°)4.6 mphClear
10:53 PM37.0 °F21.0 °F52 %30.06 in10.0 miNNE (20°)3.5 mphClear
11:53 PM34.0 °F21.0 °F59 %30.06 in10.0 miCalmClear
Hourly data recorded from KFRG, located miles away from Centerport, New York







STORIES FROM OUR PARTNERS